O3B FM9 (40351 NORAD) Tracking and Keplerian Element Data

This shows tracking and keplerian element data for the satellite.

Feedback or suggestion? Click here.




ElementValue
Catalog40351
NameO3B FM9
Epoch Orbit17307
Epoch Day159.63102744
Epoch Year2024
RAAN6.8823
Inclination0.057
Eccentricity0.0002618
Argument of Perigee69.6134
Mean Anonmoly283.5323
Mean Motion5.0011599
Decay Rate-2.5E-07
L11 40351U 14083D 24159.63102744 -.00000025 00000+0 00000+0 0 9993
L22 40351 0.0570 6.8823 0002618 69.6134 283.5323 5.00115990173074



Live tracking and technical data element details for O3B FM9 (NORAD 40351). O3B FM9 can be tracked NOW for your location showing map with azimuth and elevation plus other details from your city location.







IsCatalogInMostPopularTable: catalog: 40351, numindb: 646
Update: records affected: 1



GetName: 40351 O3B FM9

Hit Count: updated at: Mon, 17 Jun 2024 22:41:10 GMT